Weather History for Istanbul, Turkey

Change the Weather History Date:

Sunday, October 24, 2010

  Actual Average Record
Temperature  
Mean Temperature 63 °F -  
Max Temperature 70 °F 59 °F 73 °F (2003)
Min Temperature 56 °F 49 °F 50 °F (1996)
Degree Days  
Heating Degree Days 2    
Growing Degree Days 13 (Base 50)    
Moisture  
Dew Point 52 °F    
Average Humidity 70    
Maximum Humidity 82    
Minimum Humidity 42    
Precipitation  
Precipitation 0.00 in - - ()
Sea Level Pressure  
Sea Level Pressure 30.09 in    
Wind  
Wind Speed 8 mph ()    
Max Wind Speed 15 mph    
Max Gust Speed 21 mph    
Visibility 6.2 miles    
Events      
Averages and records for this station are not official NWS values.
T = Trace of Precipitation, MM = Missing Value Source: Averaged Metar Reports

Daily Weather History Graph

Daily Weather History Graph

Search for Another Location

Airport:

Trip Planner

Search our weather history database for the weather conditions in past years. The results will help you decide how hot, cold, wet, or windy it might be!

Date:

Astronomy

Oct. 24, 2010 Rise Set
Actual Time 7:25 AM EEST 6:11 PM EEST
Civil Twilight 6:57 AM EEST 6:39 PM EEST
Nautical Twilight 6:25 AM EEST 7:11 PM EEST
Astronomical Twilight 5:53 AM EEST 7:43 PM EEST
Moon 6:38 PM EEST (10/24) 8:48 AM EEST (10/24)
Length of Visible Light 11h 41m
Length of Day
10h 45m
Full, 98% of the Moon is Illuminated
Oct 24
Full
Oct 30
Last Quarter
Nov 6
New
Nov 13
First Quarter
Nov 21
Full

Hourly Weather History & Observations

Time (EEST) Temp. Dew Point Humidity Pressure Visibility Wind Dir Wind Speed Gust Speed Precip Events Conditions
12:20 AM 60.8 °F 53.6 °F 77% 30.15 in 6.2 mi Variable 8.1 mph - N/A   Scattered Clouds
12:50 AM 59.0 °F 51.8 °F 77% 30.15 in 6.2 mi NE 9.2 mph - N/A   Scattered Clouds
1:20 AM 59.0 °F 51.8 °F 77% 30.15 in 6.2 mi ENE 9.2 mph - N/A   Scattered Clouds
1:50 AM 59.0 °F 51.8 °F 77% 30.15 in 6.2 mi NE 8.1 mph - N/A   Scattered Clouds
2:20 AM 57.2 °F 51.8 °F 82% 30.15 in 6.2 mi NE 6.9 mph - N/A   Scattered Clouds
3:00 AM 58 °F 52 °F 75% 30.15 in 6 mi NE 5.8 mph - -   Partly Cloudy
3:50 AM 57.2 °F 51.8 °F 82% 30.12 in 6.2 mi NE 6.9 mph - N/A   Scattered Clouds
4:20 AM 57.2 °F 51.8 °F 82% 30.12 in 6.2 mi NNE 6.9 mph - N/A   Scattered Clouds
4:50 AM 57.2 °F 51.8 °F 82% 30.12 in 6.2 mi NE 8.1 mph - N/A   Scattered Clouds
5:20 AM 57.2 °F 51.8 °F 82% 30.12 in 6.2 mi NE 8.1 mph - N/A   Scattered Clouds
5:50 AM 57.2 °F 51.8 °F 82% 30.12 in 6.2 mi NE 8.1 mph - N/A   Partly Cloudy
6:20 AM 57.2 °F 51.8 °F 82% 30.12 in 6.2 mi NNE 6.9 mph - N/A   Scattered Clouds
6:50 AM 57.2 °F 50.0 °F 77% 30.12 in 6.2 mi NNE 6.9 mph - N/A   Scattered Clouds
7:20 AM 57.2 °F 50.0 °F 77% 30.12 in 6.2 mi NNE 5.8 mph - N/A   Scattered Clouds
7:50 AM 59.0 °F 51.8 °F 77% 30.12 in 6.2 mi NNE 8.1 mph - N/A   Scattered Clouds
8:20 AM 59.0 °F 51.8 °F 77% 30.12 in 6.2 mi NNE 8.1 mph - N/A   Scattered Clouds
8:50 AM 60.8 °F 51.8 °F 72% 30.12 in 6.2 mi ENE 6.9 mph - N/A   Partly Cloudy
9:00 AM 61 °F 53 °F 67% 30.14 in 6 mi ENE 6.9 mph - -   Scattered Clouds
9:20 AM 62.6 °F 53.6 °F 72% 30.12 in 6.2 mi ENE 8.1 mph - N/A   Partly Cloudy
9:50 AM 62.6 °F 51.8 °F 68% 30.12 in 6.2 mi ENE 10.4 mph - N/A   Partly Cloudy
10:20 AM 62.6 °F 51.8 °F 68% 30.12 in 6.2 mi ENE 12.7 mph - N/A   Partly Cloudy
10:50 AM 62.6 °F 51.8 °F 68% 30.12 in 6.2 mi ENE 15.0 mph - N/A   Partly Cloudy
11:20 AM 64.4 °F 50.0 °F 59% 30.12 in 6.2 mi ENE 11.5 mph - N/A   Partly Cloudy
11:50 AM 66.2 °F 51.8 °F 60% 30.09 in 6.2 mi ENE 11.5 mph - N/A   Partly Cloudy
12:20 PM 66.2 °F 50.0 °F 56% 30.09 in 6.2 mi NE 11.5 mph - N/A   Partly Cloudy
12:50 PM 68.0 °F 51.8 °F 56% 30.09 in 6.2 mi NE 11.5 mph - N/A   Partly Cloudy
1:20 PM 68.0 °F 50.0 °F 52% 30.09 in - ENE 9.2 mph - N/A   Clear
1:50 PM 68.0 °F 50.0 °F 52% 30.06 in 6.2 mi ENE 9.2 mph - N/A   Partly Cloudy
2:20 PM 68.0 °F 51.8 °F 56% 30.06 in 6.2 mi ENE 9.2 mph 20.7 mph N/A   Partly Cloudy
2:50 PM 69.8 °F 51.8 °F 53% 30.06 in 6.2 mi NE 8.1 mph - N/A   Partly Cloudy
3:00 PM 69 °F 51 °F 42% 30.07 in 6 mi NE 8.1 mph - -   Scattered Clouds
3:20 PM 68.0 °F 51.8 °F 56% 30.06 in 6.2 mi NNE 10.4 mph - N/A   Partly Cloudy
3:50 PM 68.0 °F 53.6 °F 60% 30.04 in - NE 11.5 mph - N/A   Clear
4:20 PM 68.0 °F 53.6 °F 60% 30.06 in - NNE 11.5 mph - N/A   Clear
4:50 PM 66.2 °F 51.8 °F 60% 30.06 in - NNE 12.7 mph - N/A   Clear
5:20 PM 64.4 °F 53.6 °F 68% 30.04 in - NNE 12.7 mph - N/A   Clear
5:50 PM 62.6 °F 51.8 °F 68% 30.04 in - North 15.0 mph - N/A   Clear
6:20 PM 62.6 °F 51.8 °F 68% 30.04 in - NNE 13.8 mph - N/A   Clear
6:50 PM 60.8 °F 51.8 °F 72% 30.04 in - NNE 12.7 mph - N/A   Clear
7:20 PM 60.8 °F 51.8 °F 72% 30.04 in - NNE 10.4 mph - N/A   Clear
7:50 PM 60.8 °F 51.8 °F 72% 30.04 in - Variable 9.2 mph - N/A   Clear
8:20 PM 60.8 °F 51.8 °F 72% 30.06 in - NE 10.4 mph - N/A   Clear
8:50 PM 59.0 °F 51.8 °F 77% 30.04 in - NE 10.4 mph - N/A   Clear
9:00 PM 60 °F 53 °F 69% 30.06 in 6 mi NE 10.4 mph - -  
9:20 PM 59.0 °F 51.8 °F 77% 30.04 in - NE 8.1 mph - N/A   Clear
9:50 PM 59.0 °F 51.8 °F 77% 30.06 in - Variable 8.1 mph - N/A   Clear
10:20 PM 59.0 °F 51.8 °F 77% 30.06 in - NNE 9.2 mph - N/A   Clear
10:50 PM 59.0 °F 51.8 °F 77% 30.06 in - North 9.2 mph - N/A   Clear
11:20 PM 59.0 °F 51.8 °F 77% 30.06 in - NNE 6.9 mph - N/A   Clear
11:50 PM 59.0 °F 51.8 °F 77% 30.06 in - NNE 6.9 mph - N/A   Clear